(471) Papagena
ephemeris date magn radius delta ra dec elong phase
Today19 Oct 20259.52.227 AU1.319 AU03h39m+01°17'147.9°13.8°
Opposition10 Nov 20259.12.231 AU1.262 AU03h20m+01°56'164.1°7.0°
(471) Papagena - 2025-10-19
astro.vanbuitenen.nl


 
-1 year
-1 month
-1 day
Now
+1 day
+1 month
+1 year

The interactive orbit chart above shows the body's path through the solar system and its position at the given date. Green and blue lines are shown perpendicular to the ecliptic plane: Green if the path is above the ecliptic plane, blue if it is below. (Left-click and drag to rotate the view; Right-click and drag to move the view; Use scroll wheel to zoom in our out.)

The orbital elements of Papagena are:

            e (Eccentricity)                : 0.2290233
            a (Semimajor axis)              : 2.8885289
            i (Inclination)                 : 15.01908
            Ω (Longitude of ascending node) : 83.77141
            ω (Argument of perihelion)      : 315.87747
            M (Mean anomaly)                : 326.52079
            Epoch                           : 2025 May 05

            L (Longitude of perihelion)     : 40.64341
            B (Latitude of perihelion)      : -10.39379
            P (Orbital period in years)     : 4.91            
        

The light curve chart below shows the estimated development of the minor planet's magnitude.


The all-sky chart below shows the path of the minor planet over the same period as the light curve. The current position is marked yellow.





The following chart shows the path of the minor planet in the next few days. The field of view is optimized for (~10x50) binoculars and finderscopes.




Ephemerides:
Date       Time       RA (2000)    DEC (2000)    delta   radius  elong  phase   PA    magn
2025-10-19 00:00 UT   03 39 01.0   +01 17 29     1.319    2.227  147.9   13.8   287    9.5 
2025-10-19 04:56 UT   03 38 53.7   +01 17 30     1.318    2.227  148.1   13.7   287    9.5 
2025-10-20 00:00 UT   03 38 24.6   +01 17 39     1.314    2.227  148.9   13.4   288    9.4 
2025-10-21 00:00 UT   03 37 46.4   +01 17 55     1.309    2.227  149.8   13.0   289    9.4 
2025-10-22 00:00 UT   03 37 06.6   +01 18 19     1.305    2.227  150.8   12.6   290    9.4 
2025-10-23 00:00 UT   03 36 25.2   +01 18 51     1.300    2.227  151.7   12.2   292    9.4 
2025-10-24 00:00 UT   03 35 42.3   +01 19 30     1.296    2.227  152.6   11.9   293    9.4 
2025-10-25 00:00 UT   03 34 57.9   +01 20 18     1.292    2.227  153.5   11.5   295    9.3 
2025-10-26 00:00 UT   03 34 12.0   +01 21 14     1.289    2.227  154.5   11.1   296    9.3 
2025-10-27 00:00 UT   03 33 24.7   +01 22 18     1.285    2.227  155.4   10.7   298    9.3 
2025-10-28 00:00 UT   03 32 36.2   +01 23 32     1.282    2.228  156.2   10.4   300    9.3 
2025-10-29 00:00 UT   03 31 46.3   +01 24 55     1.279    2.228  157.1   10.0   302    9.3 
2025-10-30 00:00 UT   03 30 55.3   +01 26 28     1.276    2.228  157.9    9.6   305    9.2 
2025-10-31 00:00 UT   03 30 03.2   +01 28 11     1.274    2.228  158.7    9.3   307    9.2 
2025-11-01 00:00 UT   03 29 10.1   +01 30 03     1.271    2.228  159.5    9.0   310    9.2 
2025-11-02 00:00 UT   03 28 15.9   +01 32 06     1.269    2.228  160.2    8.7   312    9.2 
2025-11-03 00:00 UT   03 27 20.9   +01 34 20     1.267    2.229  160.9    8.4   315    9.2 
2025-11-04 00:00 UT   03 26 25.1   +01 36 44     1.266    2.229  161.6    8.1   318    9.1 
2025-11-05 00:00 UT   03 25 28.5   +01 39 19     1.264    2.229  162.1    7.8   322    9.1 
2025-11-06 00:00 UT   03 24 31.2   +01 42 04     1.263    2.229  162.7    7.6   325    9.1 
2025-11-07 00:00 UT   03 23 33.3   +01 45 01     1.262    2.230  163.1    7.4   329    9.1 
2025-11-08 00:00 UT   03 22 35.0   +01 48 09     1.262    2.230  163.5    7.2   333    9.1 
2025-11-09 00:00 UT   03 21 36.2   +01 51 28     1.262    2.230  163.8    7.1   338    9.1 
2025-11-10 00:00 UT   03 20 37.0   +01 54 59     1.261    2.230  164.1    7.0   342    9.1 
2025-11-11 00:00 UT   03 19 37.5   +01 58 41     1.262    2.231  164.2    6.9   346    9.1 
2025-11-12 00:00 UT   03 18 37.9   +02 02 35     1.262    2.231  164.2    6.9   351    9.1 
2025-11-13 00:00 UT   03 17 38.2   +02 06 40     1.263    2.231  164.2    6.9   355    9.1 
2025-11-14 00:00 UT   03 16 38.5   +02 10 57     1.264    2.232  164.0    7.0   360    9.1 
2025-11-15 00:00 UT   03 15 38.8   +02 15 26     1.265    2.232  163.8    7.1     4    9.1 
2025-11-16 00:00 UT   03 14 39.3   +02 20 06     1.266    2.232  163.5    7.2     8    9.1 
2025-11-17 00:00 UT   03 13 40.0   +02 24 59     1.268    2.233  163.1    7.4    12    9.1 
2025-11-18 00:00 UT   03 12 41.1   +02 30 03     1.270    2.233  162.6    7.6    16    9.1 


    Terminology:
            
    delta:  distance between minor planet and earth in AU
    radius: distance between minor planet and sun in AU
    magn:   magnitude (brightness) estimate    
    ra:     right ascension in hours (24h = 360deg)
    dec:    declination in degrees
    elong:  elongation in degrees (angle sun-earth-minor planet)    
    phase:  phase angle in degrees (angle sun-minor planet-earth)        
    AU:     Astronomical Unit (mean distance between earth and sun: 149597870.7 km
    

Orbital elements provided by the MPC (Minor Planet Center).
Calculations by a modified version of AAPlus, a C# implementation of the AA+ project by PJ Naughter from the algorithms presented in the book "Astronomical Algorithms" by Jean Meeus.
NGC2000 dso catalog and star labels from VizieR as provided by the Strasbourg astronomical Data Center.
Tycho2 catalog from the ESO archive.